Regional Weather Roundup
Issued by NWS

Home | Current Version | Previous Version | Text Only | Print | Product List | Glossary On
Versions: 1 2 3 4 5 6 7 8 9 10 11 12 13 14 15 16 17 18 19 20 21 22 23 24 25 26 27 28 29 30 31 32 33 34 35 36 37 38 39 40 41 42 43 44 45 46 47 48 49 50
000
ASUS43 KLMK 231610
RWRKY
KENTUCKY REGIONAL WEATHER ROUNDUP
NATIONAL WEATHER SERVICE LOUISVILLE KY
1200 PM EDT SUN APR 23 2017

NOTE "FAIR" INDICATES FEW OR NO CLOUDS BELOW 12,000 FEET
WITH NO SIGNIFICANT WEATHER AND/OR OBSTRUCTIONS TO VISIBILITY.

KYZ001>023-026-027-061>063-070>075-231700-
WESTERN AND SOUTH CENTRAL KENTUCKY

CITY           SKY/WX    TMP DP  RH WIND       PRES   REMARKS
PADUCAH        MOSUNNY   59  43  55 N17       29.95F
HENDERSON      MOSUNNY   59  42  53 N16G22    29.99F
OWENSBORO      CLOUDY    58  43  57 NE13G22   29.95F
HOPKINSVILLE   LGT RAIN  47  45  93 N13       29.92R
BOWLING GREEN  RAIN      49  47  93 NE13      29.92R FOG
GLASGOW        RAIN      47  47 100 NE7       29.93R
$$

KYZ024-025-028>034-038-045-046-053-231700-
NORTH CENTRAL KENTUCKY

CITY           SKY/WX    TMP DP  RH WIND       PRES   REMARKS
LOUISVILLE/SDF PTSUNNY   61  43  51 NE14      29.95F
LOUISVILLE/LOU PTSUNNY   60  42  51 N14G21    29.95F
FORT KNOX      CLOUDY    56  43  62 NE17G24   29.93F
$$

KYZ035>037-039>044-047>052-055>060-089>105-231700-
NORTHEAST KENTUCKY

CITY           SKY/WX    TMP DP  RH WIND       PRES   REMARKS
LEXINGTON      CLOUDY    51  41  68 NE22      29.92F
COVINGTON      PTSUNNY   57  38  48 NE17      30.02F
FRANKFORT      CLOUDY    54  40  59 NE12G25   29.92F
$$

KYZ054-064>069-076>088-106>120-231700-
SOUTHEAST KENTUCKY

CITY           SKY/WX    TMP DP  RH WIND       PRES   REMARKS
JACKSON        LGT RAIN  47  46  97 CALM      29.93S FOG
LONDON         RAIN      50  47  89 NE5       29.91R
SOMERSET       RAIN      48  48 100 E6        29.90R
MIDDLESBORO    RAIN      54  54 100 CALM      29.89R
MONTICELLO     RAIN      51  50  96 N7G20     29.89R
$$




USA.gov is the U.S. government's official web portal to all federal, state and local government web resources and services.